Location: Hermaringen
(48.5952°N, 10.2585°E)
Time: 11:19:12
(UTC+00:00)

Courier 1B - Pass Details

Date: 19 February 2026
Orbit: 962 x 1208 km, 28.3° (Epoch: 7 March)

Event Time Altitude Azimuth Distance (km) Brightness Sun altitude
Rises 19:53:50 0° 230° (SW) 3,927 11.0 -31.2°
Reaches altitude 10° 19:57:57 10° 208° (SSW) 3,019 10.1 -31.9°
Enters shadow 19:59:42 13° 195° (SSW) 2,789 9.8 -32.1°
Maximum altitude 20:01:53 15° 176° (S) 2,693 - -32.5°
Drops below altitude 10° 20:05:54 10° 144° (SE) 3,097 - -33.1°
Sets 20:10:13 0° 124° (ESE) 4,089 - -33.7°
